Regional Weather Roundup
Issued by NWS

Home | Current Version | Previous Version | Text Only | Print | Product List | Glossary Off
Versions: 1 2 3 4 5 6 7 8 9 10 11 12 13 14 15 16 17 18 19 20 21 22 23 24 25 26 27 28 29 30 31 32 33 34 35 36 37 38 39 40 41 42 43 44 45 46 47 48 49 50

401
ASUS43 KDMX 051906
RWRIA

WEATHER ROUNDUP FOR IOWA
NATIONAL WEATHER SERVICE DES MOINES IA
100 PM CST MON DEC 05 2016

NOTE: "FAIR" INDICATES FEW OR NO CLOUDS BELOW 12,000 FEET WITH NO
SIGNIFICANT WEATHER AND/OR OBSTRUCTIONS TO VISIBILITY.

* - THESE STATIONS ARE NOT NWS STATIONS...THUS NOT UNDER NWS
QUALITY CONTROL.  THEY ALSO DO NOT REPORT WEATHER SUCH
AS PRECIPITATION OR FOG.

IAZ001>003-012>014-020>022-031>034-043>046-052000-
   NORTHWEST IOWA

CITY           SKY/WX    TMP DP  RH WIND       PRES   REMARKS
CARROLL *      SUNNY     46  39  76 S20G26    29.68F
CHEROKEE *     CLOUDY    46  34  63 S20G32    29.59F
DENISON *      PTSUNNY   45  34  65 S22G31    29.62F
LE MARS *      CLOUDY    43  34  70 S25G36    29.54F
ORANGE CITY *  CLOUDY    43  34  70 S26G37    29.50F
SHELDON *      CLOUDY    45  36  70 S26G35    29.51F
SIOUX CITY     CLOUDY    46  34  62 S21G29    29.59F
SPENCER        MOSUNNY   47  34  60 S31G40    29.58F
STORM LAKE *     N/A     45  36  70 S22G31    29.62S
$$

IAZ055>058-069>071-079>083-090>094-052000-
   SOUTHWEST IOWA

CITY           SKY/WX    TMP DP  RH WIND       PRES   REMARKS
ATLANTIC *     CLOUDY    48  36  61 S22G29    29.70F
AUDUBON *      SUNNY     48  36  61 S17G28    29.71F
CLARINDA *       N/A     50  37  62 S18G26      N/A
COUNCIL BLFS *   N/A     46  34  61 S16G24    29.67F
CRESTON *      SUNNY     48  36  61 S25       29.75F
HARLAN  *      PTSUNNY   46  37  71 S22G32    29.70F
LAMONI         CLOUDY    39  37  92 S14G21    29.80F WCI  31
RED OAK *      MOSUNNY   50  37  62 S22       29.72F
SHENANDOAH *   SUNNY     50  37  62 S20       29.73F
$$

IAZ047>049-059>061-072>074-084-052000-
   CENTRAL IOWA

CITY           SKY/WX    TMP DP  RH WIND       PRES   REMARKS
AMES           CLOUDY    43  39  86 SE10      29.78F
ANKENY *       SUNNY     48 N/A N/A S18       29.79F
BOONE *        SUNNY     41  36  81 S13       29.75F
CHARITON *       N/A     45  37  76 S22       29.80F
DES MOINES     PTSUNNY   50  36  58 S18       29.79F
GRINNELL*      CLOUDY    36  35  99 SE13      29.84F FOG     WCI  27
KNOXVILLE *    SUNNY     46  36  66 S13G25    29.80F
MARSHALLTOWN   CLOUDY    35  34  96 S15       29.81F FOG     WCI  25
NEWTON *       SUNNY     41  36  81 S21G26    29.80F
PELLA *        SUNNY     44  38  78 S16       29.84F
PERRY *          N/A     47  38  69 S20       29.74F
$$

IAZ004>006-015-016-023>025-035-036-052000-
   NORTH CENTRAL IOWA

CITY           SKY/WX    TMP DP  RH WIND       PRES   REMARKS
ALGONA *       MOSUNNY   45  36  70 S28G37    29.66F
CLARION *      MOSUNNY   37  37 100 S21       29.73F WCI  27
ESTHERVILLE    CLOUDY    44  36  73 S29G36    29.59F
FORT DODGE *   CLOUDY    41  34  75 S13G23    29.71F
MASON CITY     MOSUNNY   36  33  89 S18       29.76F WCI  26
FOREST CITY *    N/A     37  37 100 S17G24    29.71F WCI  28
WEBSTER CITY * MOSUNNY   39  37  93 SE18G24   29.72F WCI  30
IOWA FALLS *   CLOUDY    36  34  92 S17       29.79F FOG     WCI  26
$$

IAZ007>011-017>019-026>030-037>042-050>054-066-052000-
   NORTHEAST IOWA

CITY           SKY/WX    TMP DP  RH WIND       PRES   REMARKS
CEDAR RAPIDS   CLOUDY    32  32 100 S16       29.88F FOG     WCI  21
CHARLES CITY * CLOUDY    34  34 100 S16G22    29.80F WCI  23
CLINTON *      CLOUDY    35  32  88 S15       29.95F FOG     WCI  25
DECORAH *      CLOUDY    34  32  93 S12       29.83S FOG     WCI  25
DUBUQUE        SNOW      31  31 100 S17       29.90F VSB 1/4 WCI  19
MONTICELLO *   FOG       32  32 100 S16       29.91F VSB 1   WCI  21
OELWEIN *      CLOUDY    32  32 100 S16       29.85F FOG     WCI  21
WATERLOO       CLOUDY    33  32  96 S16G23    29.83F WCI  23
$$

IAZ064-065-067-068-078-052000-
   EAST CENTRAL IOWA

CITY           SKY/WX    TMP DP  RH WIND       PRES   REMARKS
DAVENPORT      CLOUDY    33  32  96 S17       29.94F WCI  22
IOWA CITY      CLOUDY    34  32  92 S12       29.94S WCI  25
MUSCATINE *    CLOUDY    36  32  87 S12       29.94F FOG     WCI  27
QUAD CITIES    CLOUDY    36  32  85 S13G23    29.94F FOG     WCI  27
$$

IAZ062-063-075>077-085>089-095>099-052000-
   SOUTHEAST IOWA

CITY           SKY/WX    TMP DP  RH WIND       PRES   REMARKS
BURLINGTON     CLOUDY    34  34 100 S13       29.93F FOG     WCI  25
FAIRFIELD *    CLOUDY    37  36  93 S10G23    29.89F WCI  30
FORT MADISON * FOG       36  36 100 S13       29.93F VSB 3/4 WCI  27
KEOKUK *       CLOUDY    37  37 100 S8        29.92F WCI  31
OSKALOOSA *      N/A     39  37  92 S21       29.86F WCI  29
CENTERVILLE *    N/A     41  41 100 SE13      29.85F
OTTUMWA        PTSUNNY   41  36  82 S18       29.86F
WASHINGTON *   CLOUDY    36  34  93 S16       29.92F FOG     WCI  26
$$

ABBREVIATIONS USED IN REMARKS
   TC - TEMPERATURES IN CELSIUS
  WCI - WIND CHILL INDEX
   HX - HEAT INDEX
  VSB - VISIBILITY
$$





USA.gov is the U.S. government's official web portal to all federal, state and local government web resources and services.